Regional Weather Roundup
Issued by NWS

Home | Current Version | Previous Version | Text Only | Print | Product List | Glossary Off
Versions: 1 2 3 4 5 6 7 8 9 10 11 12 13 14 15 16 17 18 19 20 21 22 23 24 25 26 27 28 29 30 31 32 33 34 35 36 37 38 39 40 41 42 43 44 45 46 47 48 49 50

000
ASUS45 KTFX 190704
RWRMT
MONTANA HOURLY WEATHER ROUNDUP
NATIONAL WEATHER SERVICE GREAT FALLS MT
1204 AM MST FRI DEC 19 2014

NOTE: "FAIR" INDICATES FEW OR NO CLOUDS BELOW 12000 FEET WITH NO
SIGNIFICANT WEATHER AND/OR OBSTRUCTIONS TO VISIBILITY.

* THESE STATIONS ARE NOT UNDER NWS QUALITY CONTROL. THEY DO NOT
   REPORT WEATHER SUCH AS PRECIPITATION OR FOG.

MTZ001>007-043-190800-
WEST OF THE DIVIDE
CITY           SKY/WX    TMP DP  RH WIND       PRES   REMARKS
KALISPELL      LGT SNOW  30  30 100 CALM      29.97F VSB 2
MISSOULA       CLOUDY    30  28  92 S3        30.02S
BUTTE          MOCLDY    19  16  88 SE5       29.99S WCI  12
MULLAN PASS    CLOUDY    30  27  89 VRB6      29.90S WCI  24
* ANACONDA     PTCLDY    28  21  75 SW3        N/A
* ESSEX        N/A       30  29  96 N/A        N/A
* LINCOLN      N/A       30  28  92 SE2        N/A
* LOOKOUT PASS N/A       32  32 100 N1         N/A
* POLSON       N/A       32  31  96 N/A        N/A
* RONAN APT    MOCLDY    32  30  92 N/A        N/A
* SEELEY LAKE  N/A       26  25  96 N/A        N/A
* THOMP F APT  MOCLDY    25  23  92 SE4        N/A
$$

MTZ008-052>055-190800-
SOUTHWEST MONTANA
CITY           SKY/WX    TMP DP  RH WIND       PRES   REMARKS
BOZEMAN        CLOUDY    27  23  85 CALM      29.99F
DILLON         MOCLDY    27  19  72 SW9       30.01S WCI  18
* W YELLOWSTON PTCLDY    25  22  88 SW2G8      N/A
* THREE FORKS  PTCLDY    28  28 100 N/A        N/A
* BOULDER HILL N/A       29  16  58 SW10       N/A   WCI  20
* MONIDA PASS  N/A       23  23 100 SE14G19    N/A   WCI  10
* RAYNOLDS PAS N/A       23   8  52 S14        N/A   WCI  10
* WHITEHALL    N/A       31  23  72 W5         N/A   WCI  26
* WISE RIVER   N/A       23  19  85 W4G10      N/A
$$

MTZ009>010-012-014-046-048-049-054-190800-
EAST SLOPES AND CENTRAL MONTANA
CITY           SKY/WX    TMP DP  RH WIND       PRES   REMARKS
CUT BANK       CLEAR     34  25  70 W16       29.86S WCI  24
GREAT FALLS    PTCLDY    32  25  75 SW14      29.89F WCI  22
HELENA         MOCLDY    25  21  85 S3        29.97F
* EAST GLACIER N/A       34  22  61 W16G24     N/A   WCI  24
* MONARCH      N/A       31  17  56 SW6        N/A   WCI  25
* PENDROY      N/A       30  19  64 W7         N/A   WCI  23
* SWEET GRASS  N/A       32  25  75 W11        N/A   WCI  23
$$

MTZ011-013-016-021-035-040-045-047-050-051-190800-
NORTH CENTRAL MONTANA
CITY           SKY/WX    TMP DP  RH WIND       PRES   REMARKS
HAVRE          PTCLDY    28  25  89 SW10      29.89F WCI  19
LEWISTOWN      CLEAR     30  21  69 SW14      29.92S WCI  19
* N BAR RANCH  CLEAR     28  21  75 W6        29.93S WCI  21
* CHESTER      N/A       20  17  88 W1         N/A
* DENTON       N/A       27  21  78 S8         N/A   WCI  19
* JUDITH GAP   N/A       33  20  59 S10        N/A   WCI  25
* LOMA         N/A       31  26  82 W6         N/A   WCI  25
$$

MTZ017>020-022>027-061-062-190800-
NORTHEAST MONTANA
CITY           SKY/WX    TMP DP  RH WIND       PRES   REMARKS
GLASGOW        MOCLDY    19  18  96 CALM      29.91S
GLENDIVE       MOCLDY    28  25  89 S5        29.93S WCI  22
JORDAN         PTCLDY    28  25  89 W10       29.91F WCI  19
SIDNEY         MOCLDY    21  16  81 CALM      29.94S
WOLF POINT     FOG       19  18  96 CALM      29.93S VSB 3
* BEAVER HILL  N/A       32  24  72 S16        N/A   WCI  21
* CIRCLE       N/A       31  28  89 N/A        N/A
* LINDSAY DVD  N/A       36  27  70 W11        N/A   WCI  28
* NAVAJO       N/A       17  15  92 N/A        N/A
* SACO         N/A       16  15  96 SE2        N/A
$$

MTZ028>042-056>058-190800-
SOUTHCENTRAL AND SOUTHEAST MONTANA
CITY           SKY/WX    TMP DP  RH WIND       PRES   REMARKS
BAKER          CLOUDY    32  25  75 SW12      29.93F WCI  23
BILLINGS       PTCLDY    30  19  64 SW18      29.97F WCI  18
LIVINGSTON     CLOUDY    37  21  52 SW22G32   29.95S WCI  26
MILES CITY     CLEAR     28  23  81 S6        29.95S WCI  21
* LAUREL APT   PTCLDY    30  14  51 N/A        N/A
* ROUNDUP APT  CLEAR     34  21  59 S5         N/A   WCI  29
* ALZADA       N/A       25  19  78 W3         N/A
* LAME DEER    N/A       34  16  48 W8         N/A   WCI  27
* REED POINT   N/A       23  19  85 N/A        N/A
* ROSCOE HILL  N/A       34   7  32 SW8G15     N/A   WCI  27
$$

REGIONAL REPORTS...DAKOTAS
CITY           SKY/WX    TMP DP  RH WIND       PRES   REMARKS
WILLISTON      FOG       27  27 100 S3        29.92F VSB M1/4
DICKINSON      PTCLDY    28  21  75 SW7       29.90F WCI  21
BEACH          CLOUDY    32  27  82 SW12      29.91F WCI  23
CROSBY         CLOUDY    27  27 100 W7        29.92F WCI  19
WATFORD CITY   CLEAR     18  16  92 CALM      29.90F
BISMARCK       CLOUDY    27  25  92 S7        29.99F WCI  19
GRAND FORKS    CLOUDY    19  18  96 S13       30.12F WCI   6
FARGO          HAZE      21  18  88 SE15      30.15F WCI   7
BUFFALO SD     PTCLDY    28  21  75 W8        29.89S WCI  20
RAPID CITY     PTCLDY    27  18  69 W5        30.00F WCI  21
$$

REGIONAL REPORTS...WYOMING/IDAHO/WASHINGTON
CITY           SKY/WX    TMP DP  RH WIND       PRES   REMARKS
GILLETTE       CLEAR     28  16  61 SW7       29.99S WCI  21
SHERIDAN       CLEAR     25  12  58 S6        29.98S WCI  18
CODY           PTCLDY    36  18  48 SW7       30.00S WCI  30
YELLOWSTONE LA MOCLDY    23  18  81 W5        30.06F WCI  16
SALMON         CLOUDY    27  23  85 CALM      30.08S
MULLAN PASS    CLOUDY    30  27  89 VRB6      29.90S WCI  24
SAND POINT     CLOUDY    34  34 100 CALM      29.96F
SPOKANE        FOG       37  36  96 E7        29.92S WCI  32
$$

REGIONAL REPORTS...SASKATCHEWAN
CITY           SKY/WX    TMP DP  RH WIND       PRES   REMARKS
SWIFT CURRENT  CLOUDY    18  16  92 W6        29.85S WCI  10

$$




USA.gov is the U.S. government's official web portal to all federal, state and local government web resources and services.